When you browse on this site, cookies collect data to enhance your experience and personalize the content and advertising you see.
Visit our Privacy Policy to learn more. By continuing to use the site, you agree to this use of cookies and data.
  • In Austria
  • List of Countries
  • For 7 days
  • Water Temperature
  • Weather Map
  • News
  • Weather Widgets
  • user-avatar
    Login

    Hourly Weather Vanadzor

    Today, 17 February, Monday

    Time Temperature Precipitation Wind Pressure Humidity
    00:00 -7°C° 0 mm 1 mps 637 mmHg 86%
    01:00 -7°C° 0 mm 1 mps 637 mmHg 87%
    02:00 -8°C° 0 mm 1 mps 637 mmHg 88%
    03:00 -8°C° 0 mm 1 mps 637 mmHg 88%
    04:00 -8°C° 0 mm 1 mps 637 mmHg 89%
    05:00 -8°C° 0 mm 1 mps 637 mmHg 90%
    06:00 -8°C° 0 mm 1 mps 637 mmHg 91%
    07:00 -7°C° 0 mm 1 mps 637 mmHg 91%
    08:00 -8°C° 0 mm 2 mps 638 mmHg 91%
    09:00 -7°C° 0 mm 2 mps 638 mmHg 92%
    10:00 -6°C° 0.2 mm 2 mps 638 mmHg 91%
    11:00 -5°C° 0.2 mm 2 mps 638 mmHg 91%
    12:00 -4°C° 0.2 mm 2 mps 638 mmHg 90%
    13:00 -4°C° 0.1 mm 2 mps 638 mmHg 90%
    14:00 -4°C° 0.1 mm 2 mps 638 mmHg 89%
    15:00 -3°C° 0.1 mm 2 mps 638 mmHg 89%
    16:00 -4°C° 0.1 mm 2 mps 638 mmHg 92%
    17:00 -5°C° 0.1 mm 2 mps 638 mmHg 94%
    18:00 -4°C° 0.1 mm 1 mps 638 mmHg 96%
    19:00 -4°C° 0 mm 1 mps 639 mmHg 96%
    20:00 -6°C° 0 mm 1 mps 639 mmHg 96%
    21:00 -6°C° 0 mm 1 mps 639 mmHg 96%
    22:00 -7°C° 0 mm 1 mps 639 mmHg 95%
    23:00 -7°C° 0 mm 1 mps 639 mmHg 95%

    Tomorrow, 18 February, Tuesday

    Time Temperature Precipitation Wind Pressure Humidity
    00:00 -8°C° 0 mm 1 mps 639 mmHg 95%
    01:00 -8°C° 0 mm 1 mps 639 mmHg 93%
    02:00 -8°C° 0 mm 0 mps 639 mmHg 92%
    03:00 -8°C° 0 mm 0 mps 639 mmHg 91%
    04:00 -8°C° 0 mm 1 mps 639 mmHg 90%
    05:00 -8°C° 0 mm 1 mps 639 mmHg 88%
    06:00 -7°C° 0 mm 1 mps 639 mmHg 87%
    07:00 -6°C° 0 mm 1 mps 639 mmHg 86%
    08:00 -3°C° 0 mm 1 mps 640 mmHg 84%
    09:00 -2°C° 0 mm 1 mps 641 mmHg 83%
    10:00 -1°C° 0 mm 1 mps 641 mmHg 84%
    11:00 0°C° 0 mm 1 mps 640 mmHg 84%
    12:00 +1°C° 0 mm 1 mps 640 mmHg 84%
    13:00 +2°C° 0 mm 1 mps 640 mmHg 85%
    14:00 +2°C° 0 mm 1 mps 640 mmHg 85%
    15:00 +2°C° 0 mm 1 mps 639 mmHg 85%
    16:00 0°C° 0 mm 1 mps 639 mmHg 85%
    17:00 -3°C° 0 mm 2 mps 638 mmHg 85%
    18:00 -5°C° 0 mm 2 mps 638 mmHg 85%
    19:00 -5°C° 0 mm 2 mps 638 mmHg 83%
    20:00 -5°C° 0 mm 2 mps 638 mmHg 81%
    21:00 -5°C° 0 mm 2 mps 638 mmHg 79%
    22:00 -5°C° 0 mm 2 mps 638 mmHg 79%
    23:00 -5°C° 0 mm 2 mps 638 mmHg 79%

    Day after tomorrow, 19 February, Wednesday

    Time Temperature Precipitation Wind Pressure Humidity
    00:00 -6°C° 0 mm 2 mps 637 mmHg 80%
    01:00 -6°C° 0 mm 2 mps 637 mmHg 81%
    02:00 -6°C° 0 mm 2 mps 637 mmHg 82%
    03:00 -6°C° 0 mm 2 mps 637 mmHg 84%
    04:00 -6°C° 0 mm 2 mps 636 mmHg 84%
    05:00 -7°C° 0 mm 3 mps 636 mmHg 85%
    06:00 -7°C° 0 mm 3 mps 635 mmHg 85%
    07:00 -6°C° 0 mm 3 mps 635 mmHg 84%
    08:00 -5°C° 0 mm 3 mps 636 mmHg 83%
    09:00 -3°C° 0 mm 2 mps 636 mmHg 81%
    10:00 -2°C° 0 mm 2 mps 635 mmHg 81%
    11:00 +1°C° 0 mm 2 mps 635 mmHg 81%
    12:00 +2°C° 0 mm 2 mps 635 mmHg 80%
    13:00 +2°C° 0 mm 2 mps 634 mmHg 80%
    14:00 +4°C° 0 mm 1 mps 634 mmHg 79%
    15:00 +4°C° 0 mm 1 mps 634 mmHg 79%
    16:00 +3°C° 0 mm 1 mps 633 mmHg 79%
    17:00 +1°C° 0 mm 1 mps 633 mmHg 79%
    18:00 0°C° 0 mm 1 mps 632 mmHg 79%
    19:00 0°C° 0 mm 1 mps 632 mmHg 78%
    20:00 0°C° 0 mm 1 mps 632 mmHg 77%
    21:00 0°C° 0 mm 1 mps 632 mmHg 76%
    22:00 0°C° 0 mm 1 mps 632 mmHg 78%
    23:00 0°C° 0 mm 1 mps 632 mmHg 80%

    20 February, Thursday

    Time Temperature Precipitation Wind Pressure Humidity
    00:00 -1°C° 0 mm 0 mps 631 mmHg 81%
    01:00 -2°C° 0 mm 0 mps 631 mmHg 81%
    02:00 -2°C° 0 mm 0 mps 631 mmHg 81%
    03:00 -2°C° 0 mm 0 mps 630 mmHg 80%
    04:00 -3°C° 0 mm 0 mps 630 mmHg 80%
    05:00 -3°C° 0 mm 0 mps 630 mmHg 79%
    06:00 -3°C° 0 mm 0 mps 630 mmHg 79%
    07:00 -2°C° 0 mm 0 mps 630 mmHg 78%
    08:00 0°C° 0 mm 0 mps 630 mmHg 77%
    09:00 +1°C° 0 mm 0 mps 631 mmHg 76%
    10:00 +1°C° 0 mm 0 mps 631 mmHg 77%
    11:00 +3°C° 0 mm 1 mps 630 mmHg 78%
    12:00 +4°C° 0 mm 1 mps 630 mmHg 79%
    13:00 +4°C° 0 mm 1 mps 630 mmHg 79%
    14:00 +4°C° 0 mm 1 mps 630 mmHg 80%
    15:00 +4°C° 0 mm 1 mps 629 mmHg 80%
    16:00 +3°C° 0 mm 1 mps 629 mmHg 83%
    17:00 +1°C° 0 mm 0 mps 629 mmHg 86%
    18:00 -1°C° 0 mm 0 mps 629 mmHg 89%
    19:00 -1°C° 0 mm 0 mps 629 mmHg 89%
    20:00 -1°C° 0 mm 0 mps 629 mmHg 90%
    21:00 0°C° 0 mm 1 mps 629 mmHg 90%
    22:00 0°C° 0 mm 1 mps 629 mmHg 90%
    23:00 0°C° 0 mm 1 mps 630 mmHg 90%

    21 February, Friday

    Time Temperature Precipitation Wind Pressure Humidity
    00:00 0°C° 0 mm 1 mps 630 mmHg 89%
    01:00 0°C° 0 mm 1 mps 630 mmHg 89%
    02:00 0°C° 0 mm 1 mps 630 mmHg 88%
    03:00 0°C° 0 mm 1 mps 630 mmHg 88%
    04:00 -3°C° 0 mm 2 mps 630 mmHg 88%
    05:00 -3°C° 0 mm 2 mps 630 mmHg 88%
    06:00 -3°C° 0 mm 2 mps 630 mmHg 88%
    07:00 -2°C° 0 mm 2 mps 630 mmHg 86%
    08:00 -1°C° 0 mm 2 mps 631 mmHg 85%
    09:00 +1°C° 0 mm 2 mps 631 mmHg 83%
    16:00 +2°C° 0 mm 2 mps 631 mmHg 82%
    17:00 +1°C° 0 mm 2 mps 631 mmHg 85%
    18:00 -2°C° 0 mm 2 mps 631 mmHg 89%
    19:00 -2°C° 0 mm 2 mps 631 mmHg 88%
    20:00 -2°C° 0 mm 2 mps 631 mmHg 87%
    21:00 -2°C° 0 mm 2 mps 632 mmHg 86%
    22:00 -2°C° 0 mm 2 mps 632 mmHg 86%
    23:00 -2°C° 0 mm 2 mps 632 mmHg 86%

    22 February, Saturday

    Time Temperature Precipitation Wind Pressure Humidity
    00:00 -2°C° 0 mm 2 mps 632 mmHg 86%
    01:00 -2°C° 0 mm 2 mps 632 mmHg 86%
    02:00 -2°C° 0 mm 2 mps 632 mmHg 87%
    03:00 -3°C° 0 mm 2 mps 632 mmHg 87%
    04:00 -2°C° 0 mm 2 mps 632 mmHg 86%
    05:00 -2°C° 0 mm 2 mps 632 mmHg 86%
    06:00 0°C° 0 mm 1 mps 632 mmHg 86%
    07:00 0°C° 0 mm 1 mps 633 mmHg 85%
    08:00 +1°C° 0 mm 1 mps 633 mmHg 84%
    09:00 +2°C° 0 mm 1 mps 633 mmHg 82%
    10:00 +3°C° 0 mm 1 mps 633 mmHg 81%
    11:00 +4°C° 0 mm 1 mps 633 mmHg 79%
    12:00 +4°C° 0 mm 1 mps 633 mmHg 77%
    13:00 +4°C° 0 mm 1 mps 633 mmHg 78%
    14:00 +5°C° 0 mm 1 mps 632 mmHg 78%
    15:00 +5°C° 0 mm 1 mps 632 mmHg 78%
    16:00 +2°C° 0 mm 0 mps 632 mmHg 81%
    17:00 +1°C° 0 mm 0 mps 632 mmHg 85%
    18:00 0°C° 0 mm 0 mps 632 mmHg 89%
    19:00 0°C° 0 mm 0 mps 632 mmHg 89%
    20:00 0°C° 0 mm 0 mps 632 mmHg 88%
    21:00 -1°C° 0 mm 0 mps 632 mmHg 88%
    22:00 -1°C° 0 mm 0 mps 632 mmHg 87%
    23:00 -1°C° 0 mm 0 mps 632 mmHg 87%
    Show more